FW3577 Weather Reports


Display with metric or nautical units.
time (UTC)temp
F
wind
direction
speed
MPH
gust
MPH
rain 1hr
in
rain 24hr
in
rain mn
in
humidity
%
barometer
mb
20260507045001 34 127 0.0 0.0 0.00 0.00 0.00 69 1013.2
20260507044501 35 116 0.0 0.0 0.00 0.00 0.00 70 1013.2
20260507044001 35 96 0.0 0.0 0.00 0.00 0.00 70 1013.2
20260507043001 34 110 0.0 0.0 0.00 0.00 0.00 68 1013.2
20260507042001 35 108 0.0 0.0 0.00 0.00 0.00 66 1013.3
20260507041500 36 76 0.0 0.0 0.00 0.00 0.00 64 1013.4
20260507041000 37 110 0.0 0.0 0.00 0.00 0.00 64 1013.5
20260507040500 38 84 0.0 0.0 0.00 0.00 0.00 63 1013.5
20260507035500 38 101 0.0 0.0 0.00 0.00 0.00 64 1013.4
20260507035001 38 91 0.0 0.0 0.00 0.00 0.00 64 1013.5
20260507034500 37 96 0.0 0.0 0.00 0.00 0.00 64 1013.6
20260507034001 39 126 0.0 0.0 0.00 0.00 0.00 60 1013.7
20260507033501 40 107 0.0 0.0 0.00 0.00 0.00 60 1013.8
20260507033001 40 92 0.0 0.0 0.00 0.00 0.00 60 1013.7
20260507032001 41 83 0.0 0.0 0.00 0.00 0.00 60 1013.9
20260507031001 41 108 0.0 0.0 0.00 0.00 0.00 59 1013.8
20260507030500 42 86 0.0 0.0 0.00 0.00 0.00 59 1013.6
20260507030002 41 84 0.0 0.0 0.00 0.00 0.00 60 1013.6
20260507025500 41 121 0.0 0.0 0.00 0.00 0.00 60 1013.6
20260507025000 42 105 0.0 0.0 0.00 0.00 0.00 59 1013.6
20260507023500 42 77 0.0 0.0 0.00 0.00 0.00 60 1013.5
20260507023001 42 78 0.0 0.0 0.00 0.00 0.00 60 1013.5
20260507022500 43 78 0.0 0.0 0.00 0.00 0.00 58 1013.4
20260507021500 43 83 0.0 0.0 0.00 0.00 0.00 57 1013.5
20260507021000 43 77 0.0 0.0 0.00 0.00 0.00 57 1013.4
20260507020500 43 72 0.0 0.0 0.00 0.00 0.00 57 1013.5
20260507020001 43 80 0.0 0.0 0.00 0.00 0.00 57 1013.5
20260507015500 44 85 0.0 0.0 0.00 0.00 0.00 56 1013.5
20260507015000 44 78 0.0 0.0 0.00 0.00 0.00 55 1013.4
20260507014500 44 78 0.0 0.0 0.00 0.00 0.00 55 1013.3
20260507014001 45 80 0.0 0.0 0.00 0.00 0.00 55 1013.4
20260507013459 45 79 0.0 0.0 0.00 0.00 0.00 54 1013.3
20260507013001 45 72 0.0 0.0 0.00 0.00 0.00 54 1013.4
20260507012500 46 71 0.0 0.0 0.00 0.00 0.00 54 1013.4
20260507012000 46 71 0.0 0.0 0.00 0.00 0.00 54 1013.4
20260507011500 46 71 0.0 0.0 0.00 0.00 0.00 54 1013.4
20260507011000 46 70 0.0 0.0 0.00 0.00 0.00 54 1013.4
20260507010500 46 67 0.0 0.0 0.00 0.00 0.00 53 1013.5
20260507010002 46 79 0.0 0.0 0.00 0.00 0.00 53 1013.5
20260507005500 47 63 0.0 0.0 0.00 0.00 0.00 52 1013.5
20260507005000 47 63 0.0 0.0 0.00 0.00 0.00 51 1013.6
20260507004500 48 53 0.0 0.0 0.00 0.00 0.00 51 1013.6
20260507004001 48 53 0.0 0.0 0.00 0.00 0.00 51 1013.6
20260507003500 49 43 0.0 0.0 0.00 0.00 0.00 49 1013.7
20260507003000 49 52 0.0 0.0 0.00 0.00 0.00 49 1013.7
20260507002500 50 34 0.0 0.0 0.00 0.00 0.00 48 1013.8
20260507002001 50 15 0.0 0.0 0.00 0.00 0.00 46 1013.9
20260507001500 51 354 0.0 0.0 0.00 0.00 0.00 46 1013.9
20260507001000 51 354 0.0 0.0 0.00 0.00 0.00 43 1013.9
20260507000002 51 23 0.0 0.0 0.00 0.00 0.00 44 1014.0
20260506235500 51 349 0.0 0.0 0.00 0.00 0.00 43 1014.1
20260506235000 52 39 0.0 0.0 0.00 0.00 0.00 43 1014.0
20260506234500 52 35 0.0 0.0 0.00 0.00 0.00 43 1014.1
20260506234001 52 359 0.0 0.0 0.00 0.00 0.00 42 1014.1
20260506233500 53 340 0.0 0.0 0.00 0.00 0.00 43 1014.0
20260506233001 52 324 0.0 0.0 0.00 0.00 0.00 43 1014.1
20260506232459 52 344 0.0 0.0 0.00 0.00 0.00 43 1014.2
20260506232000 52 355 0.0 0.0 0.00 0.00 0.00 45 1014.1
20260506231500 52 337 0.0 0.0 0.00 0.00 0.00 44 1014.2
20260506230500 51 25 0.0 0.0 0.00 0.00 0.00 44 1014.4
20260506230004 51 352 0.0 0.0 0.00 0.00 0.00 45 1014.3
20260506225500 51 18 0.0 0.0 0.00 0.00 0.00 44 1014.4
20260506225000 51 345 0.0 0.0 0.00 0.00 0.00 44 1014.4
20260506224500 51 13 0.0 0.0 0.00 0.00 0.00 44 1014.5
20260506224001 51 337 0.0 0.0 0.00 0.00 0.00 44 1014.5
20260506223500 51 342 0.0 0.0 0.00 0.00 0.00 45 1014.5
20260506223001 51 323 0.0 0.0 0.00 0.00 0.00 44 1014.6
20260506222001 51 18 0.0 0.0 0.00 0.00 0.00 44 1014.6
20260506221001 52 329 0.0 0.0 0.00 0.00 0.00 42 1014.5
20260506220500 52 302 0.0 0.0 0.00 0.00 0.00 41 1014.5
20260506220001 53 321 0.0 0.0 0.00 0.00 0.00 41 1014.6
20260506215000 52 297 0.0 0.0 0.00 0.00 0.00 45 1014.7
20260506214500 52 326 0.0 0.0 0.00 0.00 0.00 43 1014.7
20260506214001 52 336 0.0 0.0 0.00 0.00 0.00 43 1014.7
20260506213001 52 297 0.0 0.0 0.00 0.00 0.00 42 1014.8
20260506212001 53 356 0.0 0.0 0.00 0.00 0.00 42 1015.0
20260506211500 53 323 0.0 0.0 0.00 0.00 0.00 46 1014.9
20260506211001 51 336 0.0 0.0 0.00 0.00 0.00 44 1015.1
20260506210500 51 295 0.0 0.0 0.00 0.00 0.00 45 1015.2
20260506210004 52 296 0.0 0.0 0.00 0.00 0.00 45 1015.3
20260506205500 51 337 0.0 0.0 0.00 0.00 0.00 46 1015.4
20260506205000 51 315 0.0 0.0 0.00 0.00 0.00 44 1015.4
20260506204500 52 302 0.0 0.0 0.00 0.00 0.00 45 1015.5
20260506204000 51 316 0.0 0.0 0.00 0.00 0.00 45 1015.5
20260506203500 51 293 0.0 0.0 0.00 0.00 0.00 43 1015.4
20260506203000 52 255 0.0 0.0 0.00 0.00 0.00 44 1015.6
20260506202500 52 346 0.0 0.0 0.00 0.00 0.00 44 1015.6
20260506202000 52 308 0.0 0.0 0.00 0.00 0.00 42 1015.8
20260506200500 52 317 0.0 0.0 0.00 0.00 0.00 48 1015.9
20260506200002 51 315 0.0 0.0 0.00 0.00 0.00 46 1015.9
20260506195500 51 305 0.0 0.0 0.00 0.00 0.00 45 1015.9
20260506194500 51 316 0.0 0.0 0.00 0.00 0.00 45 1016.0
20260506194000 51 314 0.0 0.0 0.00 0.00 0.00 44 1016.0
20260506193001 51 304 0.0 0.0 0.00 0.00 0.00 44 1016.1
20260506192001 50 303 0.0 0.0 0.00 0.00 0.00 45 1016.1
20260506191500 50 321 0.0 0.0 0.00 0.00 0.00 46 1016.3
20260506191000 50 338 0.0 0.0 0.00 0.00 0.00 47 1016.3
20260506190459 50 300 0.0 0.0 0.00 0.00 0.00 46 1016.4
20260506190002 50 283 0.0 0.0 0.00 0.00 0.00 46 1016.4
20260506184459 50 342 0.0 0.0 0.00 0.00 0.00 47 1016.5
20260506184000 50 243 0.0 0.0 0.00 0.00 0.00 49 1016.7
20260506183459 49 319 0.0 0.0 0.00 0.00 0.00 47 1016.7
20260506183000 49 317 0.0 0.0 0.00 0.00 0.00 46 1016.8
20260506182500 48 298 0.0 0.0 0.00 0.00 0.00 47 1017.0
20260506182000 48 328 0.0 0.0 0.00 0.00 0.00 47 1017.1
20260506180459 48 292 0.0 0.0 0.00 0.00 0.00 48 1017.4
20260506180001 48 335 0.0 0.0 0.00 0.00 0.00 48 1017.4
20260506175500 49 320 0.0 0.0 0.00 0.00 0.00 50 1017.5
20260506175001 48 311 0.0 0.0 0.00 0.00 0.00 49 1017.6
20260506174500 48 323 0.0 0.0 0.00 0.00 0.00 50 1017.6
20260506173459 47 298 0.0 0.0 0.00 0.00 0.00 51 1017.7
20260506173000 48 253 0.0 0.0 0.00 0.00 0.00 51 1017.8
20260506172459 47 309 0.0 0.0 0.00 0.00 0.00 55 1017.8
20260506172001 47 326 0.0 0.0 0.00 0.00 0.00 52 1017.9
20260506171459 47 309 0.0 0.0 0.00 0.00 0.00 51 1017.9
20260506171000 47 319 0.0 0.0 0.00 0.00 0.00 54 1017.9
20260506170459 46 297 0.0 0.0 0.00 0.00 0.00 51 1017.9
20260506170000 46 313 0.0 0.0 0.00 0.00 0.00 52 1017.9
20260506165501 46 340 0.0 0.0 0.00 0.00 0.00 53 1017.9
20260506165000 46 286 0.0 0.0 0.00 0.00 0.00 52 1017.9
20260506164500 46 349 0.0 0.0 0.00 0.00 0.00 54 1018.1
20260506164000 46 35 0.0 0.0 0.00 0.00 0.00 53 1018.0
20260506163459 47 346 0.0 0.0 0.00 0.00 0.00 52 1018.3
20260506163001 47 280 0.0 0.0 0.00 0.00 0.00 54 1018.3
20260506162459 46 273 0.0 0.0 0.00 0.00 0.00 53 1018.4
20260506162000 45 331 0.0 0.0 0.00 0.00 0.00 53 1018.3
20260506161500 46 288 0.0 0.0 0.00 0.00 0.00 52 1018.4
20260506161000 46 253 0.0 0.0 0.00 0.00 0.00 56 1018.3
20260506160459 45 53 0.0 0.0 0.00 0.00 0.00 57 1018.4
20260506160001 44 318 0.0 0.0 0.00 0.00 0.00 56 1018.4
20260506155459 44 304 0.0 0.0 0.00 0.00 0.00 55 1018.4
20260506155000 45 309 0.0 0.0 0.00 0.00 0.00 55 1018.4
20260506154459 45 294 0.0 0.0 0.00 0.00 0.00 55 1018.4
20260506154000 45 27 0.0 0.0 0.00 0.00 0.00 57 1018.3
20260506153459 45 353 0.0 0.0 0.00 0.00 0.00 57 1018.5
20260506153000 44 13 0.0 0.0 0.00 0.00 0.00 58 1018.5
20260506152459 43 341 0.0 0.0 0.00 0.00 0.00 58 1018.5
20260506152001 44 331 0.0 0.0 0.00 0.00 0.00 59 1018.6
20260506151459 43 326 0.0 0.0 0.00 0.00 0.00 56 1018.5
20260506151000 43 321 0.0 0.0 0.00 0.00 0.00 57 1018.4
20260506150459 44 305 0.0 0.0 0.00 0.00 0.00 58 1018.5
20260506150000 44 239 0.0 0.0 0.00 0.00 0.00 57 1018.4
20260506145000 43 288 0.0 0.0 0.00 0.00 0.00 60 1018.5
20260506144500 42 288 0.0 0.0 0.00 0.00 0.00 59 1018.7
20260506144000 42 288 0.0 0.0 0.00 0.00 0.00 60 1018.7
20260506143459 42 312 0.0 0.0 0.00 0.00 0.00 59 1018.8
20260506143000 42 311 0.0 0.0 0.00 0.00 0.00 59 1018.7
20260506142459 42 136 0.0 0.0 0.00 0.00 0.00 61 1018.7
20260506142000 41 37 0.0 0.0 0.00 0.00 0.00 61 1018.8
20260506141459 41 325 0.0 0.0 0.00 0.00 0.00 62 1018.7
20260506140459 41 332 0.0 0.0 0.00 0.00 0.00 63 1018.7
20260506140000 41 22 0.0 0.0 0.00 0.00 0.00 64 1018.7
20260506135459 40 350 0.0 0.0 0.00 0.00 0.00 65 1018.8
20260506135000 40 345 0.0 0.0 0.00 0.00 0.00 64 1018.8
20260506134459 39 10 0.0 0.0 0.00 0.00 0.00 65 1018.7
20260506133000 38 285 0.0 0.0 0.00 0.00 0.00 73 1018.4
20260506132459 37 285 0.0 0.0 0.00 0.00 0.00 75 1018.5
20260506131459 36 285 0.0 0.0 0.00 0.00 0.00 79 1018.4
20260506131000 35 285 0.0 0.0 0.00 0.00 0.00 80 1018.4
20260506130500 35 285 0.0 0.0 0.00 0.00 0.00 80 1018.5
20260506130000 35 285 0.0 0.0 0.00 0.00 0.00 81 1018.3
20260506125459 35 285 0.0 0.0 0.00 0.00 0.00 81 1018.3
20260506125000 34 290 0.0 0.0 0.00 0.00 0.00 82 1018.2
20260506124459 34 290 0.0 0.0 0.00 0.00 0.00 83 1018.3
20260506124000 33 270 0.0 0.0 0.00 0.00 0.00 84 1018.3
20260506123500 33 288 0.0 0.0 0.00 0.00 0.00 84 1018.3
20260506122459 33 264 0.0 0.0 0.00 0.00 0.00 84 1018.3
20260506121459 33 275 0.0 0.0 0.00 0.00 0.00 84 1018.0
20260506121000 33 285 0.0 0.0 0.00 0.00 0.00 84 1018.0
20260506120459 33 285 0.0 0.0 0.00 0.00 0.00 84 1018.0
20260506120000 33 285 0.0 0.0 0.00 0.00 0.00 84 1017.9
20260506115501 32 285 0.0 0.0 0.00 0.00 0.00 85 1017.9
20260506115000 32 285 0.0 0.0 0.00 0.00 0.00 85 1017.8
20260506114459 32 285 0.0 0.0 0.00 0.00 0.00 85 1017.8
20260506114005 32 285 0.0 0.0 0.00 0.00 0.00 85 1017.6
20260506113459 32 285 0.0 0.0 0.00 0.00 0.00 85 1017.7
20260506113000 32 287 0.0 0.0 0.00 0.00 0.00 85 1017.6
20260506112459 32 282 0.0 0.0 0.00 0.00 0.00 85 1017.7
20260506112001 32 295 0.0 0.0 0.00 0.00 0.00 85 1017.6
20260506111459 32 280 0.0 0.0 0.00 0.00 0.00 85 1017.6
20260506111000 32 278 0.0 0.0 0.00 0.00 0.00 85 1017.5
20260506110459 32 286 0.0 0.0 0.00 0.00 0.00 85 1017.5
20260506110001 32 295 0.0 0.0 0.00 0.00 0.00 85 1017.5
20260506105500 32 295 0.0 0.0 0.00 0.00 0.00 84 1017.4
20260506105000 32 295 0.0 0.0 0.00 0.00 0.00 84 1017.4
20260506104459 32 295 0.0 0.0 0.00 0.00 0.00 84 1017.4
20260506103959 32 295 0.0 0.0 0.00 0.00 0.00 84 1017.3
20260506103459 32 294 0.0 0.0 0.00 0.00 0.00 84 1017.3
20260506103000 32 294 0.0 0.0 0.00 0.00 0.00 84 1017.3
20260506102500 32 294 0.0 0.0 0.00 0.00 0.00 84 1017.3
20260506101959 32 293 0.0 0.0 0.00 0.00 0.00 84 1017.2
20260506101459 32 288 0.0 0.0 0.00 0.00 0.00 84 1017.2
20260506101000 32 300 0.0 0.0 0.00 0.00 0.00 83 1017.4
20260506100459 32 301 0.0 0.0 0.00 0.00 0.00 83 1017.2
20260506100000 32 301 0.0 0.0 0.00 0.00 0.00 83 1017.4
20260506095459 32 292 0.0 0.0 0.00 0.00 0.00 83 1017.3
20260506094959 32 295 0.0 0.0 0.00 0.00 0.00 83 1017.2
20260506094459 32 295 0.0 0.0 0.00 0.00 0.00 83 1017.2
20260506094000 32 295 0.0 0.0 0.00 0.00 0.00 83 1017.3
20260506093459 32 288 0.0 0.0 0.00 0.00 0.00 83 1017.1
20260506093000 32 287 0.0 0.0 0.00 0.00 0.00 83 1017.0
20260506092459 32 285 0.0 0.0 0.00 0.00 0.00 83 1017.0
20260506091959 33 290 0.0 0.0 0.00 0.00 0.00 82 1017.1
20260506091459 33 281 0.0 0.0 0.00 0.00 0.00 82 1017.1
20260506091000 33 276 0.0 0.0 0.00 0.00 0.00 82 1017.0
20260506090000 33 291 0.0 0.0 0.00 0.00 0.00 82 1017.0
20260506085459 33 309 0.0 0.0 0.00 0.00 0.00 82 1017.0
20260506085000 32 310 0.0 0.0 0.00 0.00 0.00 82 1017.0
20260506083959 32 311 0.0 0.0 0.00 0.00 0.00 83 1016.9
20260506083459 32 311 0.0 0.0 0.00 0.00 0.00 83 1017.0
20260506083000 32 311 0.0 0.0 0.00 0.00 0.00 83 1016.9
20260506082459 32 286 0.0 0.0 0.00 0.00 0.00 83 1017.0
20260506082000 32 286 0.0 0.0 0.00 0.00 0.00 83 1016.9
20260506081459 32 286 0.0 0.0 0.00 0.00 0.00 83 1016.9
20260506081000 32 286 0.0 0.0 0.00 0.00 0.00 82 1016.8
20260506080459 32 286 0.0 0.0 0.00 0.00 0.00 83 1016.8
20260506073458 32 319 0.0 0.0 0.00 0.00 0.00 82 1016.7
20260506072959 32 319 0.0 0.0 0.00 0.00 0.00 82 1016.8
20260506072458 32 319 0.0 0.0 0.00 0.00 0.00 82 1016.8
20260506071959 32 319 0.0 0.0 0.00 0.00 0.00 82 1016.8
20260506071459 32 319 0.0 0.0 0.00 0.00 0.00 82 1016.9
20260506070959 32 319 0.0 0.0 0.00 0.00 0.00 82 1016.8
20260506070458 32 319 0.0 0.0 0.00 0.00 0.00 82 1016.9
20260506061458 30 4 0.0 0.0 0.00 0.00 0.00 81 1016.9
20260506060959 30 4 0.0 0.0 0.00 0.00 0.00 81 1017.0
20260506060459 30 4 0.0 0.0 0.00 0.00 0.00 81 1016.9
20260506051001 29 4 0.0 0.0 0.00 0.00 0.00 78 1016.5
20260506050500 30 4 0.0 0.0 0.00 0.00 0.00 77 1016.6